Location: Beasley Cemetery
(37.8034°N, 89.2506°W)
Time: 04:51:22
(UTC+00:00)

Daily predictions for brighter satellites

Satellite Brightness Start Highest point End
(mag) Time Altitude Azimuth Time Altitude Azimuth Time Altitude Azimuth
Cosmos 2151 Rocket 3.7 00:21:46 10° S 00:26:04 56° E 00:30:23 10° NNE
Timation 2 Rocket 4.1 00:20:26 10° S 00:27:02 66° ESE 00:33:23 10° NNE
COSMO-SKYMED 1 3.6 00:23:08 10° N 00:27:22 52° WNW 00:31:34 10° SSW
Cosmos 1300 Rocket 3.5 00:23:52 10° S 00:28:06 60° E 00:32:22 10° NNE
Meteor 2-9 Rocket 4.4 00:23:33 10° S 00:29:10 53° E 00:34:41 10° NNE
Cosmos 1461 2.7 00:26:49 10° SSW 00:30:50 66° ESE 00:34:47 10° NE
CZ-4 R/B 1.9 00:29:49 10° S 00:33:37 60° W 00:37:29 10° NNW
SL-16 R/B 3.9 00:30:18 10° NW 00:35:29 37° WSW 00:40:38 10° S
Cosmos 2297 Rocket 3.8 00:34:50 10° ESE 00:36:56 12° E 00:39:03 10° ENE
Envisat 4.1 00:34:49 10° S 00:39:44 50° W 00:44:40 10° NNW
H-2A R/B 3.7 00:37:41 10° E 00:39:56 13° ENE 00:42:11 10° NE
Cosmos 1441 Rocket 3.8 00:38:08 10° SSE 00:41:37 33° E 00:45:04 10° NNE
Cosmos 2251 Rocket 3.7 00:40:25 10° N 00:45:44 58° ENE 00:51:00 10° SSE
ISS -1.9 00:46:58 10° SSE 00:48:47 14° SE 00:49:14 14° ESE
Genesis I 4.3 00:47:17 10° NW 00:51:02 45° WSW 00:54:41 10° S
ADEOS Rocket 4.3 00:45:13 10° NE 00:51:17 26° E 00:57:31 10° SSE
ASTEX 1 4.0 00:47:51 10° NNE 00:52:14 32° E 00:56:36 10° SSE
YAOGAN 6 4.3 00:51:05 10° SSW 00:54:27 37° W 00:57:54 10° NNW
USA 186 3.2 00:55:20 18° E 00:56:32 21° ENE 00:59:11 10° NNE
GEOS 3 Rocket 3.7 00:52:54 11° SE 00:57:45 56° NE 01:02:45 10° NNW
DELTA 2 R/B (1) 4.2 00:52:48 10° SW 00:57:55 37° SSE 01:01:43 17° E
Cosmos 2333 Rocket 2.6 00:53:08 10° N 00:58:34 44° ENE 01:03:22 13° SE
ATLAS 2AS CENTAUR R/B 3.3 00:51:38 10° NNW 00:58:54 45° NE 01:04:16 16° ESE
SJ-6B 4.0 01:00:04 18° ESE 01:02:06 26° ENE 01:05:33 10° NNE
Cosmos 2074 Rocket 4.0 00:58:35 10° N 01:04:51 89° W 01:11:04 10° S
GPS 2-05 Rocket1 3.6 01:02:52 10° WSW 01:05:19 28° SSW 01:06:29 20° SSE
Cosmos 1378 3.7 01:02:45 10° NNW 01:06:28 61° W 01:10:09 10° S
Cosmos 1707 3.6 01:04:22 10° NNE 01:07:49 29° ENE 01:09:08 24° ESE
Cosmos 1939 Rocket 3.0 01:05:32 10° S 01:09:22 73° WSW 01:13:14 10° NNW
Cosmos 2237 Rocket 3.5 01:05:54 10° N 01:10:17 22° NE 01:12:11 19° E
Okean 1 Rocket 2.9 01:06:12 10° S 01:10:30 75° E 01:14:51 10° N
Resurs 01 Rocket 3.5 01:12:21 13° ENE 01:12:21 13° ENE 01:14:10 10° NE
HJ-1C 3.3 01:09:33 10° SSE 01:12:53 88° WSW 01:16:16 10° NNW
COSMOS 2455 2.9 01:07:22 10° NNW 01:13:26 84° WSW 01:19:26 10° SSE
BREEZE M DEB (TANK) 4.5 01:19:53 10° NNW 01:20:50 11° N 01:21:58 10° NNE
Ariane Rocket 3.5 01:16:57 10° S 01:21:56 61° WSW 01:26:58 10° NNW
Lacrosse 5 rocket 3.3 01:19:40 10° S 01:19:57 11° S 01:19:57 11° S
GP-B 3.6 01:18:48 10° N 01:23:11 62° W 01:27:33 10° SSW
CZ-2C R/B 4.4 01:23:18 21° ENE 01:23:45 21° ENE 01:27:42 10° NNE
Cosmos 2154 Rocket 3.9 01:20:27 10° N 01:26:40 80° E 01:32:52 10° S
Cosmos 2056 Rocket 3.8 01:23:48 10° S 01:28:53 43° ESE 01:34:00 10° NNE
MOS 1 4.3 01:25:32 10° SSE 01:31:15 85° WSW 01:36:58 10° NNW
SJ-11-01 4.2 01:28:49 15° SSE 01:32:43 80° ENE 01:37:30 10° N
Aureole 1 Rocket 3.3 01:29:42 10° NNW 01:34:37 65° WSW 01:37:14 20° S
Cosmos 407 Rocket 4.0 01:33:57 10° N 01:38:42 37° ENE 01:39:15 36° E
SL-16 R/B 4.0 01:36:13 10° NNE 01:39:23 15° NE 01:39:24 15° NE
Cosmos 614 Rocket 4.5 01:36:12 10° N 01:41:03 38° ENE 01:41:32 37° E
Cosmos 1624 Rocket 3.9 01:36:05 10° S 01:41:10 58° ESE 01:46:16 10° NNE
SL-8 Rocket 4.3 01:36:41 10° N 01:42:33 42° ENE 01:43:56 37° ESE
SPOT 3 Rocket 3.4 01:44:31 28° SSE 01:47:21 83° ENE 01:52:31 10° NNW
Cosmos 2219 Rocket 2.3 01:43:04 10° NNW 01:48:39 72° WSW 01:52:07 24° S
COSMOS 2428 2.9 01:43:50 10° NNW 01:49:29 69° WSW 01:53:09 22° S
Cosmos 1892 Rocket 3.8 01:45:29 10° N 01:49:30 51° ENE 01:49:30 51° ENE
Okean 1-7 Rocket 3.6 01:48:20 10° N 01:52:30 58° ENE 01:52:30 58° ENE
Meteor 2-17 Rocket 4.4 01:48:02 10° N 01:54:02 60° E 01:55:44 44° SE
Cosmos 405 Rocket 4.1 02:00:40 28° N 02:00:40 28° N 02:02:33 10° N
Meteor 1-15 Rocket 4.4 01:57:20 10° SSW 02:03:02 75° W 02:08:54 10° N
NOSS 3-4 (A) 3.8 01:59:12 10° NNW 02:06:24 78° ENE 02:08:54 47° SE
NOSS 3-4 (C) 3.8 01:59:19 10° NNW 02:06:30 78° ENE 02:08:58 47° SE
Cosmos 1140 Rocket 4.1 02:03:05 10° N 02:07:13 42° NE 02:07:13 42° NE
Cosmos 2219 3.7 02:02:32 10° SW 02:08:12 60° WNW 02:13:54 10° NNE
Cosmos 2227 Rocket 2.0 02:03:29 10° SSW 02:09:07 80° ESE 02:14:48 10° NNE
Cosmos 1371 Rocket 4.5 02:06:31 10° SSW 02:11:44 62° WNW 02:17:02 10° NNE
ARGOS 3.2 02:17:16 57° SSW 02:18:20 75° WSW 02:23:44 10° NNW
H-2A R/B 2.1 02:18:03 59° SW 02:18:44 67° WSW 02:23:41 10° NNW
Cosmos 2297 Rocket 2.2 02:14:32 10° SSW 02:20:11 79° WNW 02:25:53 10° NNE
NOSS 0 Rocket 4.0 02:14:54 10° NNW 02:21:05 71° WSW 02:22:34 52° S
ISS -0.7 02:21:58 10° WSW 02:22:13 12° WSW 02:22:13 12° WSW
Cosmos 1455 Rocket 4.1 02:28:53 43° NNW 02:28:53 43° NNW 02:32:10 10° N
ADEOS Rocket 4.0 02:29:44 10° N 02:36:57 60° WNW 02:44:33 10° SSW
Meteor 1-24 Rocket 4.2 02:32:59 10° N 02:37:25 53° NNE 02:37:25 53° NNE
Cosmos 2333 Rocket 4.2 02:38:05 10° NW 02:42:31 24° WSW 02:45:27 16° SW
DELTA 2 R/B (1) 4.3 02:38:29 10° WSW 02:42:31 49° WSW 02:42:31 49° WSW
Resurs 01 Rocket 3.4 02:49:56 30° NW 02:49:56 30° NW 02:52:21 10° NNW
ATLAS 2AS CENTAUR R/B 3.8 02:42:59 10° NW 02:49:43 38° WSW 02:51:44 32° SW
Meteor 2-5 Rocket 4.3 02:48:18 10° NNW 02:53:38 57° WNW 02:53:38 57° WNW
Cosmos 2237 Rocket 2.9 02:49:08 10° NNW 02:54:02 49° W 02:54:02 49° W
FALCON 9 R/B 4.2 02:12:15 10° W 02:55:58 72° SSW 02:59:23 57° SE
CZ-2C R/B 4.3 03:04:22 38° WNW 03:04:22 38° WNW 03:08:20 10° NNW
SL-16 R/B 3.8 03:18:30 10° NNW 03:21:17 30° NNW 03:21:17 30° NNW
ADEOS II 4.5 07:51:30 10° NNE 07:53:08 18° NE 07:53:08 18° NE
ATLAS 3B R/B 3.8 08:12:04 35° E 08:12:04 35° E 08:16:43 10° NE
Cosmos 1943 Rocket 3.5 08:31:02 35° NE 08:31:02 35° NE 08:34:23 10° NNE
BREEZE-M DEB (TANK) 4.2 08:36:53 50° N 08:36:53 50° N 08:49:41 10° ENE
CZ-2D R/B 4.5 08:36:19 10° N 08:37:02 13° NNW 08:37:02 13° NNW
ARIANE 5 R/B 4.1 08:46:21 10° N 08:48:43 28° N 08:48:43 28° N
CENTAUR R/B 2.6 08:53:32 67° ENE 08:53:32 67° ENE 08:59:36 10° NE
SeaSat 1 3.9 08:54:43 10° NE 08:59:03 30° ESE 08:59:33 30° ESE
Nadezhda 4 Rocket 3.9 09:01:42 78° NNE 09:01:42 78° NNE 09:07:28 10° N
BREEZE-M DEB (TANK) 4.5 09:03:45 45° W 09:07:34 66° NNW 09:12:42 10° ENE
USA 238 DEB 4.5 09:10:21 37° NW 09:10:21 37° NW 09:16:21 10° NNE
USA 238 4.4 09:10:26 37° NW 09:10:26 37° NW 09:16:28 10° NNE
Cosmos 1125 Rocket 3.8 09:06:53 10° NNW 09:12:12 67° ENE 09:17:27 10° SSE
CZ-3 R/B 4.4 08:17:43 10° W 09:15:36 65° SSW 09:28:25 10° ESE
Cosmos 44 3.7 09:15:58 61° E 09:15:58 61° E 09:20:34 10° NE
Cosmos 2369 Rocket 2.5 09:23:59 54° NW 09:23:59 54° NW 09:29:00 10° NNE
IDEFIX/ARIANE 42P 3.4 09:19:32 10° NNE 09:24:39 49° E 09:27:30 25° SSE
Atlas Centaur 2 3.0 09:26:33 46° SSW 09:27:00 46° S 09:34:26 10° ESE
Cosmos 1656 Rocket 3.9 09:26:29 46° S 09:28:03 65° ESE 09:33:41 10° NNE
SL-24 DEB 4.3 09:32:42 50° SSE 09:33:52 75° E 09:38:33 10° N
ADEOS II 3.6 09:31:23 10° N 09:34:03 23° NW 09:34:03 23° NW
Cosmos 1812 4.5 09:34:12 17° SE 09:36:28 31° E 09:39:53 10° NNE
H-2A R/B 3.3 09:33:04 10° NNE 09:36:43 42° E 09:37:43 34° SE
Hubble Space Telescope 2.7 09:41:23 19° SSE 09:41:23 19° SSE 09:43:20 10° SE
Cosmos 2026 Rocket 4.1 09:35:46 18° S 09:40:33 77° E 09:46:54 10° N
Meteor 1-10 Rocket 4.4 09:37:30 26° S 09:40:56 79° E 09:46:54 10° NNE
Lacrosse 5 rocket 2.2 09:41:40 24° NNW 09:43:59 51° NE 09:48:21 10° ESE
Cosmos 1400 Rocket 3.0 09:44:49 59° N 09:44:49 59° N 09:48:01 10° N
Cosmos 2344 4.2 09:43:58 32° WNW 09:45:58 37° NW 09:53:25 10° NNE
USA 215 3.4 09:41:58 10° NE 09:48:30 69° SE 09:52:04 29° SSW
BREEZE-M DEB (TANK) 3.8 09:48:32 43° WNW 09:49:22 47° NW 09:52:24 10° NE
Cosmos 1707 Rocket 4.4 09:50:30 36° NW 09:50:30 36° NW 09:53:39 10° N
Iridium 4 Rocket 3.0 09:50:12 48° SSW 09:51:26 78° W 09:55:48 10° N
NOSS 3-2 (C) 4.4 09:56:44 27° WNW 09:57:59 29° NW 10:03:34 10° NNE
Cosmos 2195 Rocket 4.5 09:56:07 25° SSW 09:59:52 64° W 10:06:07 10° N
ATLAS 3B R/B 3.2 09:59:20 32° W 10:01:18 39° NW 10:07:28 10° NNE
Cosmos 1733 Rocket 3.0 09:59:17 10° N 10:03:45 85° W 10:08:12 10° S
PSLV R/B 3.5 09:59:40 10° N 10:03:59 61° WNW 10:05:13 42° SW
Meteor 1-31 Rocket 4.4 10:00:39 10° NNE 10:04:14 34° E 10:07:47 10° SSE
Cosmos 1538 Rocket 4.5 10:01:53 10° S 10:06:57 59° ESE 10:12:02 10° NNE
PSLV R/B 3.8 10:05:09 10° S 10:09:17 65° WSW 10:13:23 10° NNW
OAO 2 Rocket 4.5 10:07:52 23° SSW 10:09:54 31° SSE 10:14:14 10° E
Cosmos 1536 4.0 10:06:30 10° N 10:10:19 43° E 10:14:06 10° SSE
Cosmos 1943 Rocket 3.6 10:12:34 20° WNW 10:13:05 20° NW 10:17:05 10° N
Cosmos 1428 Rocket 4.5 10:09:54 10° SSW 10:16:09 65° W 10:22:25 10° N
Cosmos 1346 Rocket 3.6 10:12:28 10° N 10:16:30 54° E 10:20:30 10° SSE
CZ-4B R/B 3.7 10:16:02 10° NNE 10:20:32 60° E 10:24:57 10° S
Cosmos 1340 3.3 10:18:38 10° N 10:22:22 58° E 10:26:06 10° SSE
ADEOS 4.0 10:18:03 10° N 10:22:54 40° WNW 10:25:42 22° SW
ASTRO E2 4.0 10:25:02 21° SSW 10:26:40 28° S 10:30:06 10° ESE
CZ-2C R/B 2.5 10:23:09 10° NNE 10:28:05 83° ESE 10:33:08 10° SSW
Cosmos 44 Rocket 3.6 10:24:08 10° SSW 10:29:11 73° ESE 10:34:08 10° NE
COSMOS 2487 3.3 10:31:13 10° NW 10:34:13 27° W 10:37:11 10° SSW
Cosmos 1461 3.8 10:34:09 21° W 10:35:32 26° WSW 10:39:01 10° S
Lacrosse 5 3.7 10:31:48 10° NNW 10:36:12 29° NE 10:40:35 10° E
SeaSat 1 3.3 10:32:08 10° N 10:36:29 32° WNW 10:39:20 18° WSW
MSX 3.9 10:32:28 10° N 10:38:05 55° WNW 10:43:38 10° SSW
Meteor 1-5 Rocket 4.4 10:36:28 10° NNW 10:41:42 49° W 10:47:06 10° SSW
CENTAUR R/B 3.9 10:40:43 14° W 10:44:23 23° NW 10:49:48 10° NNE
Cosmos 2242 Rocket 4.1 10:40:21 10° SSW 10:44:38 40° W 10:48:54 10° N
Cosmos 1703 Rocket 3.5 10:40:19 10° S 10:44:46 79° W 10:49:12 10° N
CZ-4B R/B 3.6 10:43:00 10° N 10:46:39 65° WNW 10:50:14 10° SSW
PAYLOAD A 4.0 10:42:22 10° N 10:46:56 48° WNW 10:51:25 10° SW
Cosmos 2266 Rocket 4.0 10:41:10 10° S 10:47:18 83° E 10:53:22 10° N
BREEZE-M DEB (TANK) 4.4 10:39:30 10° SW 10:51:04 45° SSE 10:54:42 10° ENE
SL-4 R/B 2.2 10:51:19 10° NW 10:54:48 59° NE 10:58:30 10° ESE
Cosmos 1500 3.9 10:52:12 10° NNW 10:55:33 31° W 10:58:53 10° SSW
Cosmos 1315 Rocket 4.0 10:58:03 10° SW 11:01:30 25° WNW 11:04:58 10° NNW
IDEFIX/ARIANE 42P 3.9 11:00:08 10° NNW 11:03:50 20° WNW 11:07:33 10° WSW
Cosmos 2219 4.4 10:59:08 10° N 11:04:37 47° ENE 11:10:00 10° SE
Cosmos 2227 Rocket 4.5 10:59:55 10° N 11:04:45 28° ENE 11:09:34 10° ESE
TSX-5 3.6 11:02:33 10° SSW 11:05:59 68° ESE 11:09:07 10° NNE
H-2A R/B 4.2 11:10:16 10° NW 11:11:49 12° WNW 11:13:22 10° W
Cosmos 1812 4.5 11:10:06 10° WSW 11:12:20 15° WNW 11:14:34 10° NW
Aureole 2 Rocket 4.1 11:13:17 10° WNW 11:13:47 10° WNW 11:14:19 10° NW
CZ-4B DEB 4.3 11:08:25 10° NNE 11:13:59 90° E 11:19:30 10° SSW
Cosmos 2297 Rocket 4.0 11:10:41 10° N 11:15:52 36° ENE 11:21:00 10° SE
Atlas Centaur 2 3.7 11:09:37 10° WSW 11:16:09 36° SSW 11:23:33 10° SE
Cosmos 2315 Rocket 4.2 11:11:06 10° N 11:17:19 82° E 11:23:32 10° S
